MHY YMHB-YBAS

Flight info

Callsign MHY
Flight time N/A
Altitude 40000
Route LATUM H111 LT H215 ONAGI/N0333F200 W562 MB W661 ML/N0432F400 H164 LEC A461 IDANU
Aircraft B738/M-SDE2E3FGHIRWXY/LB1

Departure

Time 2026-05-09 11:06
Airport Hobart International Airport (YMHB)

Arrival

Time N/A
Airport Alice Springs Airport (YBAS)
Time Latitude Longitude Altitude Speed Heading
2026-05-09 10:33 -42.83652 147.50589 26 ft 0 kts 225°
2026-05-09 10:54 -42.83651 147.50589 26 ft 0 kts 225°
2026-05-09 10:54 -42.83643 147.50598 26 ft 2 kts 205°
2026-05-09 10:54 -42.83629 147.50604 26 ft 2 kts 184°
2026-05-09 10:54 -42.83614 147.50603 25 ft 2 kts 160°
2026-05-09 10:55 -42.83601 147.50592 25 ft 2 kts 138°
2026-05-09 10:55 -42.83591 147.50577 25 ft 2 kts 133°
2026-05-09 10:55 -42.83587 147.50572 25 ft 0 kts 136°
2026-05-09 10:59 -42.83601 147.50603 25 ft 9 kts 107°
2026-05-09 11:00 -42.83628 147.50668 26 ft 23 kts 141°
2026-05-09 11:00 -42.83693 147.50824 27 ft 8 kts 70°
2026-05-09 11:00 -42.83720 147.50952 26 ft 38 kts 131°
2026-05-09 11:00 -42.83866 147.51164 22 ft 10 kts 102°
2026-05-09 11:01 -42.83836 147.51233 22 ft 9 kts 44°
2026-05-09 11:01 -42.83820 147.51250 21 ft 0 kts 38°
2026-05-09 11:03 -42.83818 147.51253 21 ft 3 kts 39°
2026-05-09 11:03 -42.83772 147.51353 21 ft 17 kts 89°
2026-05-09 11:03 -42.83863 147.51515 22 ft 41 kts 135°
2026-05-09 11:03 -42.84126 147.51878 26 ft 55 kts 134°
2026-05-09 11:04 -42.84385 147.52225 27 ft 38 kts 133°
2026-05-09 11:04 -42.84573 147.52356 28 ft 24 kts 139°
2026-05-09 11:04 -42.84546 147.52429 28 ft 7 kts
2026-05-09 11:04 -42.84535 147.52422 28 ft 1 kts 319°
2026-05-09 11:05 -42.84516 147.52388 27 ft 7 kts 314°
2026-05-09 11:05 -42.84478 147.52351 27 ft 4 kts 305°
2026-05-09 11:05 -42.84477 147.52348 27 ft 0 kts 303°
2026-05-09 11:06 -42.84430 147.52277 27 ft 45 kts 314°
2026-05-09 11:06 -42.83936 147.51616 24 ft 149 kts 314°
2026-05-09 11:06 -42.83038 147.50374 392 ft 205 kts 314°
2026-05-09 11:06 -42.81946 147.48997 887 ft 218 kts 316°
2026-05-09 11:07 -42.80795 147.47629 1440 ft 218 kts 316°
2026-05-09 11:07 -42.79654 147.46242 1889 ft 230 kts 310°
2026-05-09 11:07 -42.78572 147.44606 2703 ft 243 kts 307°
2026-05-09 11:07 -42.77467 147.42908 3741 ft 250 kts 307°
2026-05-09 11:08 -42.76224 147.41101 4571 ft 268 kts 309°
2026-05-09 11:08 -42.74910 147.39284 5523 ft 279 kts 311°
2026-05-09 11:08 -42.73541 147.37434 6571 ft 284 kts 311°
2026-05-09 11:08 -42.72140 147.35538 7623 ft 288 kts 310°
2026-05-09 11:09 -42.70673 147.33524 8012 ft 303 kts 311°
2026-05-09 11:09 -42.69210 147.31512 8043 ft 299 kts 311°
2026-05-09 11:09 -42.67762 147.29541 8045 ft 291 kts 311°
2026-05-09 11:09 -42.66325 147.27589 8047 ft 288 kts 312°
2026-05-09 11:10 -42.64886 147.25618 8236 ft 306 kts 311°
2026-05-09 11:10 -42.63416 147.23605 9501 ft 301 kts 311°
2026-05-09 11:10 -42.61980 147.21655 10723 ft 296 kts 312°
2026-05-09 11:10 -42.60414 147.19855 11626 ft 305 kts 324°
2026-05-09 11:11 -42.58442 147.18738 12531 ft 315 kts 348°
2026-05-09 11:11 -42.56237 147.18709 13423 ft 323 kts
2026-05-09 11:11 -42.54096 147.19575 14315 ft 328 kts 23°
2026-05-09 11:11 -42.52083 147.21045 15120 ft 334 kts 32°
2026-05-09 11:12 -42.50155 147.22790 15961 ft 338 kts 35°
2026-05-09 11:12 -42.48248 147.24620 16743 ft 343 kts 36°
2026-05-09 11:12 -42.46292 147.26527 17562 ft 346 kts 37°
2026-05-09 11:12 -42.44331 147.28436 18293 ft 352 kts 36°
2026-05-09 11:13 -42.42356 147.30337 19098 ft 355 kts 36°
2026-05-09 11:13 -42.40331 147.32266 19832 ft 359 kts 36°
2026-05-09 11:13 -42.38270 147.34212 20583 ft 363 kts 36°
2026-05-09 11:13 -42.36182 147.36114 21299 ft 367 kts 32°
2026-05-09 11:14 -42.33917 147.37746 21988 ft 371 kts 22°
2026-05-09 11:14 -42.31454 147.38783 22637 ft 374 kts 10°
2026-05-09 11:14 -42.28852 147.39139 23285 ft 375 kts 357°
2026-05-09 11:14 -42.26273 147.38861 23923 ft 376 kts 349°
2026-05-09 11:15 -42.23695 147.38257 24458 ft 381 kts 346°
2026-05-09 11:15 -42.21115 147.37534 25121 ft 382 kts 345°
2026-05-09 11:15 -42.18501 147.36787 25695 ft 386 kts 345°
2026-05-09 11:15 -42.15868 147.36067 26288 ft 389 kts 346°
2026-05-09 11:16 -42.13163 147.35359 26826 ft 393 kts 347°
2026-05-09 11:16 -42.10485 147.34688 27417 ft 395 kts 347°
2026-05-09 11:16 -42.07767 147.34021 27926 ft 399 kts 347°
2026-05-09 11:16 -42.05064 147.33365 28449 ft 402 kts 347°
2026-05-09 11:17 -42.02278 147.32693 28969 ft 405 kts 347°
2026-05-09 11:17 -41.99517 147.32033 29504 ft 407 kts 347°
2026-05-09 11:17 -41.96735 147.31369 29914 ft 412 kts 348°
2026-05-09 11:17 -41.93880 147.30687 30395 ft 414 kts 348°
2026-05-09 11:18 -41.91048 147.30011 30825 ft 418 kts 347°
2026-05-09 11:18 -41.88149 147.29321 31266 ft 421 kts 347°
2026-05-09 11:18 -41.85254 147.28635 31704 ft 424 kts 348°
2026-05-09 11:18 -41.82344 147.27943 32076 ft 427 kts 348°
2026-05-09 11:19 -41.79418 147.27249 32513 ft 430 kts 348°
2026-05-09 11:19 -41.76479 147.26552 32934 ft 432 kts 348°
2026-05-09 11:19 -41.73504 147.25845 33269 ft 436 kts 348°
2026-05-09 11:19 -41.70531 147.25142 33730 ft 437 kts 347°
2026-05-09 11:20 -41.67514 147.24429 34062 ft 441 kts 347°
2026-05-09 11:20 -41.64537 147.23726 34504 ft 442 kts 347°
2026-05-09 11:20 -41.61479 147.23003 34931 ft 445 kts 348°
2026-05-09 11:20 -41.58431 147.22281 35368 ft 446 kts 347°
2026-05-09 11:21 -41.55406 147.21454 35720 ft 448 kts 343°
2026-05-09 11:21 -41.52441 147.20317 36341 ft 442 kts 338°
2026-05-09 11:21 -41.49579 147.18947 36990 ft 437 kts 335°
2026-05-09 11:21 -41.46746 147.17442 37493 ft 435 kts 333°
2026-05-09 11:22 -41.43972 147.15891 37879 ft 436 kts 333°
2026-05-09 11:22 -41.41173 147.14313 38326 ft 435 kts 333°
2026-05-09 11:22 -41.38401 147.12759 38679 ft 436 kts 333°
2026-05-09 11:22 -41.36537 147.11723 38945 ft 435 kts 333°
2026-05-09 11:23 -41.32837 147.09686 39419 ft 436 kts 333°
2026-05-09 11:23 -41.30011 147.08142 39776 ft 435 kts 333°
2026-05-09 11:23 -41.27261 147.06650 40201 ft 433 kts 333°
2026-05-09 11:24 -41.21645 147.03607 40301 ft 441 kts 333°
2026-05-09 11:24 -41.15908 147.00510 40288 ft 451 kts 333°
2026-05-09 11:25 -41.10027 146.97348 40284 ft 461 kts 333°
2026-05-09 11:25 -41.04026 146.94130 40275 ft 469 kts 334°
2026-05-09 11:26 -40.97997 146.90909 40266 ft 471 kts 334°
2026-05-09 11:26 -40.91951 146.87689 40270 ft 468 kts 334°
2026-05-09 11:27 -40.85918 146.84480 40261 ft 468 kts 334°
2026-05-09 11:27 -40.79873 146.81258 40278 ft 467 kts 334°
2026-05-09 11:28 -40.73871 146.78069 40265 ft 464 kts 334°
2026-05-09 11:28 -40.67934 146.74924 40272 ft 464 kts 334°
2026-05-09 11:29 -40.61901 146.71730 40268 ft 465 kts 334°
2026-05-09 11:29 -40.55913 146.68571 40282 ft 463 kts 334°
2026-05-09 11:30 -40.49933 146.65424 40287 ft 464 kts 334°
2026-05-09 11:30 -40.43922 146.62267 40281 ft 463 kts 334°
2026-05-09 11:31 -40.37942 146.59131 40280 ft 463 kts 334°
2026-05-09 11:31 -40.32002 146.56020 40277 ft 461 kts 335°
2026-05-09 11:32 -40.26031 146.52896 40282 ft 461 kts 335°
2026-05-09 11:32 -40.20094 146.49802 40278 ft 460 kts 335°
2026-05-09 11:33 -40.14139 146.46704 40282 ft 460 kts 335°
2026-05-09 11:33 -40.05230 146.42072 40280 ft 459 kts 335°
2026-05-09 11:34 -39.99265 146.38977 40290 ft 459 kts 335°
2026-05-09 11:34 -39.93321 146.35912 40295 ft 458 kts 335°
2026-05-09 11:35 -39.87382 146.32860 40300 ft 458 kts 336°
2026-05-09 11:35 -39.81450 146.29816 40303 ft 459 kts 336°
2026-05-09 11:36 -39.75532 146.26784 40303 ft 459 kts 336°
2026-05-09 11:36 -39.69597 146.23752 40305 ft 459 kts 336°
2026-05-09 11:37 -39.63657 146.20718 40312 ft 460 kts 336°
2026-05-09 11:37 -39.57698 146.17685 40311 ft 459 kts 336°
2026-05-09 11:38 -39.51759 146.14668 40327 ft 459 kts 336°
2026-05-09 11:38 -39.45803 146.11646 40331 ft 460 kts 336°
2026-05-09 11:39 -39.39888 146.08649 40345 ft 459 kts 336°
2026-05-09 11:40 -39.30966 146.04141 40350 ft 460 kts 336°
2026-05-09 11:40 -39.24991 146.01131 40350 ft 460 kts 336°
2026-05-09 11:41 -39.19027 145.98128 40351 ft 459 kts 336°
2026-05-09 11:41 -39.13101 145.95151 40356 ft 461 kts 336°
2026-05-09 11:42 -39.07117 145.92152 40363 ft 460 kts 336°
2026-05-09 11:42 -39.01173 145.89177 40360 ft 461 kts 336°
2026-05-09 11:43 -38.95174 145.86179 40357 ft 461 kts 336°
2026-05-09 11:43 -38.89187 145.83192 40362 ft 461 kts 336°
2026-05-09 11:44 -38.83247 145.80237 40364 ft 460 kts 336°
2026-05-09 11:44 -38.77294 145.77277 40365 ft 461 kts 336°
2026-05-09 11:45 -38.71292 145.74300 40374 ft 460 kts 336°
2026-05-09 11:45 -38.65349 145.71358 40373 ft 460 kts 337°
2026-05-09 11:46 -38.59406 145.68420 40371 ft 459 kts 337°
2026-05-09 11:46 -38.53438 145.65475 40377 ft 460 kts 337°
2026-05-09 11:47 -38.47575 145.62125 40377 ft 459 kts 328°
2026-05-09 11:47 -38.42392 145.57491 40385 ft 456 kts 319°
2026-05-09 11:48 -38.37522 145.52252 40386 ft 456 kts 316°
2026-05-09 11:48 -38.32757 145.46948 40387 ft 456 kts 317°
2026-05-09 11:49 -38.27955 145.41670 40389 ft 457 kts 317°
2026-05-09 11:49 -38.23120 145.36417 40380 ft 456 kts 317°
2026-05-09 11:50 -38.18300 145.31215 40378 ft 456 kts 318°
2026-05-09 11:50 -38.13443 145.25990 40366 ft 457 kts 318°
2026-05-09 11:51 -38.08580 145.20772 40371 ft 459 kts 318°
2026-05-09 11:51 -38.03671 145.15515 40379 ft 458 kts 318°
2026-05-09 11:52 -37.98788 145.10319 40374 ft 457 kts 319°
2026-05-09 11:52 -37.93626 145.05600 40377 ft 458 kts 326°
2026-05-09 11:53 -37.88208 145.01366 40375 ft 459 kts 328°
2026-05-09 11:53 -37.82823 144.97252 40375 ft 457 kts 328°
2026-05-09 11:54 -37.77358 144.93045 40378 ft 456 kts 327°
2026-05-09 11:54 -37.71866 144.88785 40386 ft 457 kts 327°
2026-05-09 11:55 -37.66391 144.84505 40385 ft 457 kts 326°
2026-05-09 11:56 -37.51289 144.69411 40370 ft 456 kts 320°
2026-05-09 11:57 -37.46304 144.64284 40361 ft 455 kts 320°
2026-05-09 11:57 -37.41319 144.59215 40363 ft 455 kts 320°
2026-05-09 11:58 -37.36340 144.54184 40358 ft 455 kts 320°
2026-05-09 11:58 -37.31323 144.49129 40359 ft 455 kts 320°
2026-05-09 11:59 -37.26313 144.44093 40359 ft 455 kts 321°
2026-05-09 11:59 -37.21309 144.39075 40362 ft 454 kts 321°
2026-05-09 12:00 -37.16332 144.34090 40358 ft 453 kts 321°
2026-05-09 12:00 -37.11415 144.29175 40363 ft 453 kts 322°
2026-05-09 12:01 -37.06433 144.24200 40358 ft 453 kts 322°
2026-05-09 12:01 -37.01462 144.19246 40360 ft 451 kts 322°
2026-05-09 12:02 -36.96451 144.14262 40359 ft 451 kts 322°
2026-05-09 12:02 -36.91471 144.09317 40365 ft 452 kts 321°
2026-05-09 12:03 -36.86594 144.04483 40366 ft 453 kts 321°
2026-05-09 12:03 -36.81583 143.99524 40366 ft 452 kts 321°
2026-05-09 12:04 -36.76555 143.94562 40367 ft 453 kts 321°
2026-05-09 12:04 -36.71541 143.89633 40366 ft 453 kts 322°
2026-05-09 12:05 -36.66519 143.84708 40366 ft 454 kts 322°
2026-05-09 12:05 -36.61493 143.79787 40368 ft 454 kts 322°
2026-05-09 12:06 -36.56460 143.74867 40365 ft 454 kts 322°
2026-05-09 12:06 -36.51434 143.69961 40366 ft 454 kts 322°
2026-05-09 12:07 -36.46357 143.65015 40367 ft 453 kts 322°
2026-05-09 12:07 -36.41348 143.60143 40362 ft 452 kts 322°
2026-05-09 12:08 -36.36306 143.55244 40361 ft 452 kts 322°
2026-05-09 12:08 -36.31286 143.50377 40362 ft 455 kts 322°
2026-05-09 12:09 -36.26244 143.45497 40360 ft 455 kts 322°
2026-05-09 12:09 -36.21201 143.40619 40362 ft 453 kts 323°
2026-05-09 12:10 -36.11185 143.30965 40362 ft 452 kts 323°
2026-05-09 12:11 -36.06160 143.26132 40357 ft 453 kts 323°
2026-05-09 12:11 -36.01126 143.21303 40356 ft 454 kts 324°
2026-05-09 12:12 -35.96048 143.16438 40337 ft 454 kts 324°
2026-05-09 12:12 -35.90984 143.11592 40349 ft 454 kts 324°
2026-05-09 12:13 -35.86033 143.06862 40357 ft 453 kts 324°
2026-05-09 12:13 -35.80977 143.02043 40351 ft 453 kts 323°
2026-05-09 12:14 -35.75921 142.97232 40352 ft 453 kts 323°
2026-05-09 12:14 -35.70860 142.92423 40340 ft 454 kts 324°
2026-05-09 12:15 -35.65809 142.87631 40350 ft 454 kts 324°
2026-05-09 12:15 -35.60770 142.82857 40354 ft 454 kts 324°
2026-05-09 12:16 -35.55705 142.78065 40366 ft 454 kts 324°
2026-05-09 12:16 -35.50643 142.73290 40359 ft 454 kts 324°
2026-05-09 12:17 -35.45598 142.68533 40354 ft 453 kts 324°
2026-05-09 12:17 -35.40523 142.63754 40335 ft 454 kts 324°
2026-05-09 12:18 -35.35461 142.58997 40348 ft 454 kts 324°
2026-05-09 12:18 -35.30398 142.54248 40359 ft 453 kts 324°
2026-05-09 12:19 -35.25341 142.49512 40321 ft 453 kts 324°
2026-05-09 12:19 -35.20301 142.44801 40357 ft 454 kts 324°
2026-05-09 12:20 -35.15239 142.40076 40313 ft 453 kts 324°
2026-05-09 12:20 -35.10180 142.35362 40334 ft 454 kts 324°
2026-05-09 12:21 -35.05146 142.30676 40331 ft 453 kts 325°
2026-05-09 12:21 -35.00068 142.25961 40370 ft 454 kts 325°
2026-05-09 12:22 -34.94985 142.21246 40358 ft 452 kts 324°
2026-05-09 12:22 -34.89934 142.16569 40349 ft 452 kts 324°
2026-05-09 12:23 -34.84942 142.11951 40382 ft 451 kts 324°
2026-05-09 12:23 -34.79911 142.07307 40356 ft 450 kts 324°
2026-05-09 12:24 -34.74887 142.02678 40359 ft 450 kts 324°
2026-05-09 12:24 -34.69852 141.98045 40352 ft 449 kts 324°
2026-05-09 12:25 -34.64863 141.93459 40366 ft 450 kts 324°
2026-05-09 12:25 -34.59851 141.88861 40363 ft 449 kts 324°
2026-05-09 12:26 -34.54854 141.84285 40362 ft 448 kts 324°
2026-05-09 12:26 -34.49820 141.79683 40367 ft 448 kts 324°
2026-05-09 12:27 -34.44781 141.75082 40359 ft 448 kts 324°
2026-05-09 12:27 -34.39791 141.70531 40358 ft 447 kts 324°
2026-05-09 12:28 -34.34782 141.65971 40363 ft 447 kts 324°
2026-05-09 12:28 -34.29762 141.61408 40363 ft 447 kts 324°
2026-05-09 12:29 -34.24725 141.56834 40357 ft 447 kts 324°
2026-05-09 12:29 -34.19729 141.52307 40342 ft 448 kts 324°
2026-05-09 12:30 -34.14673 141.47734 40355 ft 446 kts 324°
2026-05-09 12:30 -34.07151 141.40944 40351 ft 446 kts 324°
2026-05-09 12:31 -33.99679 141.34210 40347 ft 445 kts 324°
2026-05-09 12:32 -33.94732 141.29762 40343 ft 446 kts 324°
2026-05-09 12:32 -33.89746 141.25287 40359 ft 445 kts 324°
2026-05-09 12:33 -33.84811 141.20866 40346 ft 446 kts 324°
2026-05-09 12:33 -33.79836 141.16411 40347 ft 443 kts 324°
2026-05-09 12:34 -33.74812 141.11919 40354 ft 451 kts 324°
2026-05-09 12:34 -33.69730 141.07385 40353 ft 456 kts 324°
2026-05-09 12:35 -33.64636 141.02846 40348 ft 456 kts 324°
2026-05-09 12:35 -33.59533 140.98308 40357 ft 455 kts 324°
2026-05-09 12:36 -33.54403 140.93776 40344 ft 455 kts 324°
2026-05-09 12:36 -33.49323 140.89299 40350 ft 454 kts 324°
2026-05-09 12:37 -33.44186 140.84778 40332 ft 454 kts 324°
2026-05-09 12:37 -33.39104 140.80310 40343 ft 453 kts 324°
2026-05-09 12:38 -33.33962 140.75794 40367 ft 454 kts 324°
2026-05-09 12:38 -33.28847 140.71310 40356 ft 454 kts 324°
2026-05-09 12:39 -33.23728 140.66830 40367 ft 454 kts 324°
2026-05-09 12:39 -33.18638 140.62378 40376 ft 452 kts 323°
2026-05-09 12:40 -33.13579 140.57960 40374 ft 454 kts 323°
2026-05-09 12:40 -33.08475 140.53510 40382 ft 453 kts 323°
2026-05-09 12:41 -33.03419 140.49110 40371 ft 452 kts 323°
2026-05-09 12:41 -32.98345 140.44699 40378 ft 454 kts 323°
2026-05-09 12:42 -32.93246 140.40273 40365 ft 452 kts 323°
2026-05-09 12:42 -32.88160 140.35866 40379 ft 451 kts 323°
2026-05-09 12:43 -32.83064 140.31456 40375 ft 452 kts 324°
2026-05-09 12:43 -32.77990 140.27071 40381 ft 452 kts 324°
2026-05-09 12:44 -32.72892 140.22672 40374 ft 452 kts 324°
2026-05-09 12:44 -32.67810 140.18291 40377 ft 452 kts 324°
2026-05-09 12:45 -32.62727 140.13917 40366 ft 452 kts 324°
2026-05-09 12:45 -32.57632 140.09538 40365 ft 450 kts 324°
2026-05-09 12:46 -32.52578 140.05203 40362 ft 452 kts 324°
2026-05-09 12:46 -32.48333 140.01566 40363 ft 452 kts 324°
2026-05-09 12:47 -32.42386 139.96478 40363 ft 452 kts 324°
2026-05-09 12:47 -32.37296 139.92129 40363 ft 452 kts 324°
2026-05-09 12:48 -32.32197 139.87781 40361 ft 451 kts 324°
2026-05-09 12:48 -32.27134 139.83467 40367 ft 451 kts 324°
2026-05-09 12:49 -32.22027 139.79123 40359 ft 451 kts 324°
2026-05-09 12:49 -32.16950 139.74811 40362 ft 451 kts 324°
2026-05-09 12:50 -32.11865 139.70497 40356 ft 451 kts 324°
2026-05-09 12:50 -32.06785 139.66194 40365 ft 451 kts 324°
2026-05-09 12:51 -32.01690 139.61885 40362 ft 451 kts 324°
2026-05-09 12:51 -31.96583 139.57571 40363 ft 451 kts 324°
2026-05-09 12:52 -31.91490 139.53275 40361 ft 451 kts 324°
2026-05-09 12:52 -31.86375 139.48965 40368 ft 450 kts 323°
2026-05-09 12:53 -31.81263 139.44665 40367 ft 450 kts 323°
2026-05-09 12:53 -31.76183 139.40398 40362 ft 451 kts 323°
2026-05-09 12:54 -31.71094 139.36128 40364 ft 451 kts 324°
2026-05-09 12:54 -31.65961 139.31828 40365 ft 450 kts 324°
2026-05-09 12:55 -31.60854 139.27556 40368 ft 450 kts 324°
2026-05-09 12:55 -31.55757 139.23299 40372 ft 450 kts 324°
2026-05-09 12:56 -31.50671 139.19057 40371 ft 449 kts 324°
2026-05-09 12:56 -31.45591 139.14825 40377 ft 449 kts 324°
2026-05-09 12:57 -31.40500 139.10590 40379 ft 449 kts 324°
2026-05-09 12:57 -31.35403 139.06355 40375 ft 449 kts 324°
2026-05-09 12:58 -31.30298 139.02119 40376 ft 449 kts 324°
2026-05-09 12:58 -31.25213 138.97906 40377 ft 449 kts 324°
2026-05-09 12:59 -31.20140 138.93709 40365 ft 449 kts 324°
2026-05-09 12:59 -31.15049 138.89502 40363 ft 448 kts 324°
2026-05-09 13:00 -31.09968 138.85307 40353 ft 449 kts 324°
2026-05-09 13:00 -31.04860 138.81099 40350 ft 449 kts 324°
2026-05-09 13:01 -30.99752 138.76894 40345 ft 450 kts 324°
2026-05-09 13:01 -30.94655 138.72705 40348 ft 449 kts 324°
2026-05-09 13:02 -30.89536 138.68504 40355 ft 449 kts 324°
2026-05-09 13:02 -30.84451 138.64337 40344 ft 448 kts 324°
2026-05-09 13:03 -30.79358 138.60167 40351 ft 447 kts 324°
2026-05-09 13:03 -30.74250 138.55992 40353 ft 448 kts 323°
2026-05-09 13:04 -30.69158 138.51834 40349 ft 447 kts 324°
2026-05-09 13:04 -30.64086 138.47697 40351 ft 447 kts 323°
2026-05-09 13:05 -30.59006 138.43570 40362 ft 446 kts 324°
2026-05-09 13:05 -30.53803 138.39665 40347 ft 447 kts 327°
2026-05-09 13:06 -30.48521 138.35896 40354 ft 446 kts 327°
2026-05-09 13:06 -30.43164 138.32083 40341 ft 446 kts 327°
2026-05-09 13:07 -30.37906 138.28313 40346 ft 446 kts 327°
2026-05-09 13:07 -30.32636 138.24516 40340 ft 445 kts 327°
2026-05-09 13:08 -30.27373 138.20721 40344 ft 445 kts 327°
2026-05-09 13:08 -30.22119 138.16936 40343 ft 446 kts 327°
2026-05-09 13:09 -30.16877 138.13161 40331 ft 445 kts 326°
2026-05-09 13:09 -30.11627 138.09384 40340 ft 445 kts 327°
2026-05-09 13:10 -30.06385 138.05617 40326 ft 445 kts 326°
2026-05-09 13:10 -30.01128 138.01848 40333 ft 444 kts 326°
2026-05-09 13:11 -29.95871 137.98082 40349 ft 445 kts 326°
2026-05-09 13:11 -29.90624 137.94328 40355 ft 446 kts 326°
2026-05-09 13:12 -29.85319 137.90536 40354 ft 443 kts 326°
2026-05-09 13:12 -29.80104 137.86816 40351 ft 443 kts 326°
2026-05-09 13:13 -29.74841 137.83064 40350 ft 443 kts 326°
2026-05-09 13:13 -29.69596 137.79329 40347 ft 443 kts 326°
2026-05-09 13:14 -29.64380 137.75621 40346 ft 442 kts 326°
2026-05-09 13:16 -29.43453 137.60785 40333 ft 441 kts 326°
2026-05-09 13:16 -29.38248 137.57104 40341 ft 442 kts 326°
2026-05-09 13:17 -29.32986 137.53391 40338 ft 441 kts 326°
2026-05-09 13:17 -29.27778 137.49722 40344 ft 440 kts 326°
2026-05-09 13:18 -29.22569 137.46056 40346 ft 442 kts 326°
2026-05-09 13:18 -29.17341 137.42380 40342 ft 440 kts 326°
2026-05-09 13:19 -29.12123 137.38715 40340 ft 441 kts 326°
2026-05-09 13:19 -29.06896 137.35046 40341 ft 441 kts 326°
2026-05-09 13:20 -29.01677 137.31389 40338 ft 439 kts 326°
2026-05-09 13:20 -28.96417 137.27708 40337 ft 439 kts 326°
2026-05-09 13:21 -28.91145 137.24025 40336 ft 439 kts 326°
2026-05-09 13:21 -28.85892 137.20360 40335 ft 440 kts 326°
2026-05-09 13:22 -28.80677 137.16724 40333 ft 438 kts 326°
2026-05-09 13:22 -28.75487 137.13107 40334 ft 439 kts 326°
2026-05-09 13:23 -28.62477 137.04066 40331 ft 437 kts 326°
2026-05-09 13:24 -28.57263 137.00447 40329 ft 438 kts 326°
2026-05-09 13:24 -28.52075 136.96851 40326 ft 437 kts 326°
2026-05-09 13:25 -28.46882 136.93257 40321 ft 437 kts 326°
2026-05-09 13:26 -28.39137 136.87909 40327 ft 432 kts 326°
2026-05-09 13:26 -28.34059 136.84405 40324 ft 427 kts 326°
2026-05-09 13:27 -28.28929 136.80867 40319 ft 433 kts 326°
2026-05-09 13:27 -28.23736 136.77289 40320 ft 439 kts 326°
2026-05-09 13:28 -28.19406 136.74316 40321 ft 438 kts 326°
2026-05-09 13:28 -28.13323 136.70180 40319 ft 435 kts 326°
2026-05-09 13:29 -28.08138 136.66658 40319 ft 435 kts 326°
2026-05-09 13:29 -28.02948 136.63132 40320 ft 436 kts 326°
2026-05-09 13:30 -27.97749 136.59602 40318 ft 436 kts 326°
2026-05-09 13:30 -27.92534 136.56065 40318 ft 436 kts 326°
2026-05-09 13:31 -27.87361 136.52562 40318 ft 436 kts 326°
2026-05-09 13:31 -27.82172 136.49056 40317 ft 434 kts 326°
2026-05-09 13:32 -27.76991 136.45557 40317 ft 434 kts 326°
2026-05-09 13:32 -27.69207 136.40303 40317 ft 434 kts 326°
2026-05-09 13:33 -27.64013 136.36804 40316 ft 435 kts 326°
2026-05-09 13:33 -27.58824 136.33311 40315 ft 435 kts 326°
2026-05-09 13:34 -27.53573 136.29782 40310 ft 432 kts 326°
2026-05-09 13:34 -27.48454 136.26346 40310 ft 433 kts 326°
2026-05-09 13:35 -27.43202 136.22819 40305 ft 433 kts 327°
2026-05-09 13:35 -27.38008 136.19342 40309 ft 434 kts 326°
2026-05-09 13:36 -27.32845 136.15884 40311 ft 434 kts 326°
2026-05-09 13:36 -27.27658 136.12416 40307 ft 432 kts 326°
2026-05-09 13:37 -27.22482 136.08963 40308 ft 432 kts 326°
2026-05-09 13:37 -27.17338 136.05533 40307 ft 432 kts 326°
2026-05-09 13:38 -27.12178 136.02097 40304 ft 431 kts 326°
2026-05-09 13:38 -27.07009 135.98656 40303 ft 431 kts 326°
2026-05-09 13:39 -27.01850 135.95222 40298 ft 432 kts 326°
2026-05-09 13:39 -26.96705 135.91805 40300 ft 430 kts 326°
2026-05-09 13:40 -26.91569 135.88397 40298 ft 431 kts 326°
2026-05-09 13:40 -26.86373 135.84953 40300 ft 431 kts 326°
2026-05-09 13:41 -26.81168 135.81506 40299 ft 431 kts 326°
2026-05-09 13:41 -26.76025 135.78107 40302 ft 430 kts 326°
2026-05-09 13:42 -26.70848 135.74686 40302 ft 431 kts 326°
2026-05-09 13:42 -26.65708 135.71199 40301 ft 428 kts 323°